CW1621 Weather Reports


Display with metric or nautical units.
time (UTC)temp
F
wind
direction
speed
MPH
gust
MPH
rain 1hr
in
rain 24hr
in
rain mn
in
humidity
%
barometer
mb
20260902085603 52 248 1.0 5.0 0.00 0.00 0.00 79 1008.6
20260902085103 52 227 2.0 3.0 0.00 0.00 0.00 82 1008.6
20260902084602 53 227 2.0 6.0 0.00 0.00 0.00 78 1008.6
20260902084102 55 227 1.0 6.0 0.00 0.00 0.00 75 1008.2
20260902083603 56 198 0.0 2.0 0.00 0.00 0.00 75 1008.0
20260902083103 56 198 0.0 2.0 0.00 0.00 0.00 76 1007.9
20260902082603 56 198 2.0 3.0 0.00 0.00 0.00 78 1008.0
20260902082102 54 201 3.0 6.0 0.00 0.00 0.00 79 1008.4
20260902081603 54 198 6.0 7.0 0.00 0.00 0.00 79 1008.4
20260902081103 54 224 6.0 7.0 0.00 0.00 0.00 79 1008.3
20260902080602 53 225 6.0 7.0 0.00 0.00 0.00 82 1008.3
20260902080103 53 234 5.0 5.0 0.00 0.00 0.00 78 1008.3
20260902075603 54 234 5.0 6.0 0.00 0.00 0.00 79 1008.0
20260902074603 55 245 3.0 5.0 0.00 0.00 0.00 78 1007.7
20260902073103 54 243 1.0 3.0 0.00 0.00 0.00 80 1007.9
20260902072603 54 242 3.0 6.0 0.00 0.00 0.00 77 1008.0
20260902072102 56 242 5.0 6.0 0.00 0.00 0.00 75 1007.8
20260902071603 56 256 2.0 3.0 0.00 0.00 0.00 75 1007.7
20260902071103 56 254 3.0 3.0 0.00 0.00 0.00 77 1007.8
20260902070602 55 254 2.0 3.0 0.00 0.00 0.00 78 1007.8
20260902065603 56 260 5.0 5.0 0.00 0.00 0.00 75 1008.0
20260902065102 56 262 2.0 3.0 0.00 0.00 0.00 78 1007.9
20260902064102 54 262 3.0 6.0 0.00 0.00 0.00 79 1008.2
20260902063603 53 258 5.0 5.0 0.00 0.00 0.00 79 1008.2
20260902063103 55 243 5.0 5.0 0.00 0.00 0.00 72 1007.9
20260902062602 57 144 3.0 5.0 0.00 0.00 0.00 72 1007.6
20260902061602 58 105 3.0 3.0 0.00 0.00 0.00 74 1007.6
20260902061103 58 105 3.0 5.0 0.00 0.00 0.00 73 1007.7
20260902060602 58 105 5.0 5.0 0.00 0.00 0.00 74 1008.0
20260902055102 57 131 3.0 5.0 0.00 0.00 0.00 71 1008.1
20260902054603 58 159 3.0 3.0 0.00 0.00 0.00 72 1008.0
20260902053602 58 159 6.0 6.0 0.00 0.00 0.00 73 1008.0
20260902052602 58 157 4.0 5.0 0.00 0.00 0.00 71 1008.0
20260902052102 58 157 5.0 6.0 0.00 0.00 0.00 71 1008.1
20260902051603 58 157 6.0 6.0 0.00 0.00 0.00 71 1008.1
20260902051103 58 153 5.0 6.0 0.00 0.00 0.00 70 1007.9
20260902050602 58 153 3.0 3.0 0.00 0.00 0.00 71 1007.7
20260902045602 59 149 5.0 5.0 0.00 0.00 0.00 70 1007.5
20260902045103 60 134 3.0 5.0 0.00 0.00 0.00 68 1007.6
20260902044103 61 128 6.0 8.0 0.00 0.00 0.00 68 1007.3
20260902043603 61 128 6.0 9.0 0.00 0.00 0.00 68 1007.4
20260902043102 61 118 7.0 10.0 0.00 0.00 0.00 68 1007.3
20260902042103 61 112 6.0 9.0 0.00 0.00 0.00 68 1007.4
20260902041102 61 124 9.0 10.0 0.00 0.00 0.00 67 1007.8
20260902040603 62 119 6.0 8.0 0.00 0.00 0.00 66 1007.8
20260902040103 62 119 6.0 6.0 0.00 0.00 0.00 66 1007.8
20260902035603 63 119 5.0 6.0 0.00 0.00 0.00 65 1007.8
20260902035103 63 109 6.0 9.0 0.00 0.00 0.00 64 1007.8
20260902034103 64 105 5.0 6.0 0.00 0.00 0.00 64 1007.6
20260902033603 64 115 2.0 3.0 0.00 0.00 0.00 63 1007.6
20260902033102 64 118 1.0 3.0 0.00 0.00 0.00 63 1007.6
20260902032603 64 118 2.0 3.0 0.00 0.00 0.00 63 1007.7
20260902032102 64 117 1.0 6.0 0.00 0.00 0.00 63 1007.6
20260902031603 64 111 5.0 7.0 0.00 0.00 0.00 63 1007.3
20260902030603 65 95 9.0 12.0 0.00 0.00 0.00 62 1007.6
20260902025602 65 95 14.0 17.0 0.00 0.00 0.00 61 1007.2
20260902025103 65 99 13.0 16.0 0.00 0.00 0.00 61 1007.3
20260902024603 65 112 12.0 14.0 0.00 0.00 0.00 61 1007.8
20260902024103 66 110 9.0 13.0 0.00 0.00 0.00 60 1007.7
20260902023602 66 107 12.0 15.0 0.00 0.00 0.00 60 1007.6
20260902023102 66 100 13.0 17.0 0.00 0.00 0.00 60 1007.5
20260902022103 66 108 11.0 14.0 0.00 0.00 0.00 59 1007.8
20260902021602 66 112 11.0 13.0 0.00 0.00 0.00 59 1007.9
20260902020603 66 119 11.0 13.0 0.00 0.00 0.00 58 1008.6
20260902015603 67 117 10.0 14.0 0.00 0.00 0.00 56 1008.4
20260902015102 67 116 10.0 13.0 0.00 0.00 0.00 56 1008.4
20260902014103 67 119 12.0 15.0 0.00 0.00 0.00 56 1008.2
20260902013103 67 112 12.0 15.0 0.00 0.00 0.00 55 1008.2
20260902012602 68 106 12.0 15.0 0.00 0.00 0.00 54 1008.3
20260902011103 68 99 12.0 14.0 0.00 0.00 0.00 54 1008.4
20260902010603 69 108 13.0 15.0 0.00 0.00 0.00 54 1008.5
20260902005103 69 100 14.0 17.0 0.00 0.00 0.00 54 1008.6
20260902004603 69 96 14.0 17.0 0.00 0.00 0.00 54 1008.7
20260902004102 68 97 14.0 20.0 0.00 0.00 0.00 54 1008.7
20260902003603 68 95 14.0 20.0 0.00 0.00 0.00 54 1008.8
20260902003104 68 105 13.0 16.0 0.00 0.00 0.00 54 1008.8
20260902002603 68 106 16.0 20.0 0.00 0.00 0.00 53 1008.7
20260902002103 68 108 12.0 18.0 0.00 0.00 0.00 53 1008.8
20260902001102 68 101 14.0 18.0 0.00 0.00 0.00 53 1009.1
20260902000603 68 91 15.0 18.0 0.00 0.00 0.00 53 1009.1
20260902000103 68 88 13.0 16.0 0.00 0.00 0.00 52 1009.1
20260901235103 68 105 11.0 14.0 0.00 0.00 0.00 52 1009.0
20260901234603 68 101 9.0 12.0 0.00 0.00 0.00 52 1008.8
20260901234103 68 98 10.0 14.0 0.00 0.00 0.00 52 1008.8
20260901233603 67 96 9.0 14.0 0.00 0.00 0.00 53 1009.0
20260901232603 67 75 10.0 12.0 0.00 0.00 0.00 51 1009.2
20260901232103 67 67 8.0 12.0 0.00 0.00 0.00 51 1008.8
20260901230103 69 62 10.0 17.0 0.00 0.00 0.00 53 1008.2
20260901225603 69 87 13.0 15.0 0.00 0.00 0.00 53 1007.6
20260901225103 69 84 10.0 14.0 0.00 0.00 0.00 54 1007.6
20260901224603 69 97 6.0 12.0 0.00 0.00 0.00 53 1008.3
20260901224102 69 120 6.0 12.0 0.00 0.00 0.00 54 1008.7
20260901223603 69 111 2.0 5.0 0.00 0.00 0.00 55 1008.5
20260901223103 68 163 3.0 8.0 0.00 0.00 0.00 56 1009.0
20260901222602 68 168 6.0 10.0 0.00 0.00 0.00 55 1009.4
20260901222103 68 176 7.0 12.0 0.00 0.00 0.00 55 1009.5
20260901221602 69 196 9.0 13.0 0.00 0.00 0.00 54 1009.5
20260901221102 69 194 12.0 14.0 0.00 0.00 0.00 53 1009.6
20260901220603 69 209 12.0 17.0 0.00 0.00 0.00 52 1009.5
20260901215602 69 190 18.0 23.0 0.00 0.00 0.00 53 1010.0
20260901214603 69 184 12.0 16.0 0.00 0.00 0.00 53 1009.9
20260901214103 69 199 12.0 15.0 0.00 0.00 0.00 52 1009.9
20260901213602 68 204 12.0 16.0 0.00 0.00 0.00 54 1010.3
20260901212603 68 220 9.0 12.0 0.00 0.00 0.00 54 1010.6
20260901212103 68 219 12.0 16.0 0.00 0.00 0.00 54 1010.7
20260901211603 68 239 7.0 12.0 0.00 0.00 0.00 53 1010.9
20260901211103 68 247 5.0 12.0 0.00 0.00 0.00 53 1011.0
20260901210603 68 255 13.0 21.0 0.00 0.00 0.00 51 1011.2
20260901205603 68 249 14.0 24.0 0.00 0.00 0.00 43 1011.2
20260901205103 69 248 12.0 21.0 0.00 0.00 0.00 41 1011.2
20260901204602 69 280 9.0 12.0 0.00 0.00 0.00 41 1011.0
20260901204102 69 254 5.0 8.0 0.00 0.00 0.00 45 1010.9
20260901203103 70 341 0.0 2.0 0.00 0.00 0.00 43 1010.2
20260901202603 70 341 2.0 3.0 0.00 0.00 0.00 42 1010.1
20260901201603 71 342 2.0 3.0 0.00 0.00 0.00 41 1009.7
20260901201103 72 341 1.0 5.0 0.00 0.00 0.00 41 1009.7
20260901200603 73 335 2.0 7.0 0.00 0.00 0.00 40 1009.5
20260901194602 73 95 2.0 3.0 0.00 0.00 0.00 40 1009.2
20260901194102 73 97 3.0 3.0 0.00 0.00 0.00 40 1008.9
20260901193603 73 110 2.0 3.0 0.00 0.00 0.00 39 1008.9
20260901193103 73 110 3.0 5.0 0.00 0.00 0.00 38 1009.2
20260901192602 73 114 5.0 6.0 0.00 0.00 0.00 38 1009.2
20260901192103 74 131 5.0 6.0 0.00 0.00 0.00 38 1009.3
20260901191603 73 198 2.0 3.0 0.00 0.00 0.00 36 1009.2
20260901191103 73 198 3.0 3.0 0.00 0.00 0.00 36 1009.2
20260901190603 73 198 3.0 5.0 0.00 0.00 0.00 36 1009.2
20260901184103 71 263 0.0 0.0 0.00 0.00 0.00 37 1009.5
20260901183603 71 263 0.0 0.0 0.00 0.00 0.00 38 1009.6
20260901183103 70 263 0.0 1.0 0.00 0.00 0.00 42 1009.4
20260901182603 69 263 1.0 9.0 0.00 0.00 0.00 41 1009.8
20260901182103 69 286 3.0 12.0 0.00 0.00 0.00 41 1009.8
20260901181603 69 276 3.0 6.0 0.00 0.00 0.00 42 1009.6
20260901181104 69 294 1.0 7.0 0.00 0.00 0.00 43 1009.6
20260901180602 69 287 9.0 15.0 0.00 0.00 0.00 42 1009.8
20260901180103 70 268 13.0 14.0 0.00 0.00 0.00 37 1009.6
20260901175603 72 270 10.0 14.0 0.00 0.00 0.00 40 1009.1
20260901175103 74 280 7.0 12.0 0.00 0.00 0.00 35 1008.7
20260901174603 74 88 0.0 3.0 0.00 0.00 0.00 34 1008.6
20260901174103 74 88 2.0 5.0 0.00 0.00 0.00 34 1008.4
20260901173103 74 83 5.0 7.0 0.00 0.00 0.00 34 1008.2
20260901172603 74 74 6.0 9.0 0.00 0.00 0.00 35 1008.1
20260901171603 74 99 5.0 7.0 0.00 0.00 0.00 34 1008.2
20260901171102 73 105 5.0 7.0 0.00 0.00 0.00 34 1008.3
20260901165603 73 108 5.0 9.0 0.00 0.00 0.00 34 1008.0
20260901165103 73 110 6.0 10.0 0.00 0.00 0.00 35 1008.0
20260901164602 73 113 4.0 7.0 0.00 0.00 0.00 35 1008.0
20260901164103 74 115 6.0 8.0 0.00 0.00 0.00 35 1007.6
20260901163603 73 112 6.0 10.0 0.00 0.00 0.00 35 1007.9
20260901163103 73 116 6.0 12.0 0.00 0.00 0.00 35 1007.9
20260901161602 71 134 9.0 12.0 0.00 0.00 0.00 36 1008.2
20260901160103 69 119 7.0 12.0 0.00 0.00 0.00 38 1008.0
20260901155603 69 123 9.0 12.0 0.00 0.00 0.00 39 1008.1
20260901155103 68 130 7.0 10.0 0.00 0.00 0.00 39 1008.2
20260901154603 67 142 5.0 12.0 0.00 0.00 0.00 39 1008.4
20260901154102 67 122 6.0 10.0 0.00 0.00 0.00 40 1008.5
20260901153103 66 133 5.0 9.0 0.00 0.00 0.00 42 1008.5
20260901152603 66 130 6.0 9.0 0.00 0.00 0.00 42 1008.5
20260901152102 65 141 8.0 12.0 0.00 0.00 0.00 43 1008.7
20260901151602 64 160 6.0 12.0 0.00 0.00 0.00 45 1008.8
20260901151103 64 128 9.0 12.0 0.00 0.00 0.00 45 1008.6
20260901150603 63 142 7.0 12.0 0.00 0.00 0.00 46 1008.6
20260901150104 63 147 5.0 10.0 0.00 0.00 0.00 47 1008.7
20260901145603 62 150 6.0 9.0 0.00 0.00 0.00 48 1008.7
20260901145103 61 139 5.0 7.0 0.00 0.00 0.00 51 1008.8
20260901144603 60 123 2.0 3.0 0.00 0.00 0.00 52 1008.8
20260901144102 59 123 2.0 3.0 0.00 0.00 0.00 52 1009.1
20260901143603 59 123 2.0 5.0 0.00 0.00 0.00 52 1009.1
20260901142602 59 121 5.0 7.0 0.00 0.00 0.00 53 1009.0
20260901141603 59 92 2.0 3.0 0.00 0.00 0.00 52 1008.9
20260901141102 59 92 3.0 6.0 0.00 0.00 0.00 52 1008.7
20260901140603 59 80 5.0 7.0 0.00 0.00 0.00 51 1008.4
20260901140103 59 86 5.0 6.0 0.00 0.00 0.00 51 1008.6
20260901135603 59 109 3.0 6.0 0.00 0.00 0.00 51 1008.7
20260901135103 59 109 5.0 7.0 0.00 0.00 0.00 51 1008.7
20260901134602 59 115 6.0 10.0 0.00 0.00 0.00 52 1008.7
20260901134103 59 111 6.0 9.0 0.00 0.00 0.00 52 1008.8
20260901133103 58 131 6.0 10.0 0.00 0.00 0.00 53 1009.1
20260901132603 58 120 6.0 7.0 0.00 0.00 0.00 53 1009.2
20260901132103 58 127 6.0 7.0 0.00 0.00 0.00 52 1009.2
20260901131603 58 110 3.0 5.0 0.00 0.00 0.00 52 1009.1
20260901131103 58 108 5.0 7.0 0.00 0.00 0.00 51 1008.7
20260901130603 58 122 7.0 10.0 0.00 0.00 0.00 51 1008.4
20260901125603 58 117 6.0 7.0 0.00 0.00 0.00 51 1008.5
20260901124603 59 141 7.0 8.0 0.00 0.00 0.00 51 1008.6
20260901124103 58 141 7.0 9.0 0.00 0.00 0.00 51 1008.6
20260901123603 57 142 9.0 10.0 0.00 0.00 0.00 53 1009.0
20260901123102 57 135 5.0 9.0 0.00 0.00 0.00 53 1009.0
20260901122602 58 125 5.0 6.0 0.00 0.00 0.00 52 1008.6
20260901122103 58 124 5.0 6.0 0.00 0.00 0.00 52 1008.6
20260901121602 58 117 3.0 5.0 0.00 0.00 0.00 53 1008.5
20260901121103 58 115 3.0 3.0 0.00 0.00 0.00 52 1008.6
20260901120603 58 118 5.0 6.0 0.00 0.00 0.00 53 1008.5
20260901115603 58 142 7.0 7.0 0.00 0.00 0.00 52 1008.6
20260901115103 58 142 6.0 7.0 0.00 0.00 0.00 52 1008.6
20260901114603 59 143 6.0 7.0 0.00 0.00 0.00 51 1008.4
20260901114103 60 145 5.0 5.0 0.00 0.00 0.00 50 1008.4
20260901113102 61 145 7.0 9.0 0.00 0.00 0.00 48 1008.3
20260901112602 61 142 8.0 9.0 0.00 0.00 0.00 49 1008.2
20260901112102 60 139 7.0 9.0 0.00 0.00 0.00 50 1008.5
20260901111603 60 143 7.0 9.0 0.00 0.00 0.00 49 1008.5
20260901110602 59 154 6.0 6.0 0.00 0.00 0.00 51 1008.6
20260901110103 59 161 3.0 5.0 0.00 0.00 0.00 50 1008.6
20260901105103 59 188 3.0 3.0 0.00 0.00 0.00 50 1008.6
20260901104603 60 188 0.0 3.0 0.00 0.00 0.00 50 1008.4
20260901104103 60 188 0.0 0.0 0.00 0.00 0.00 50 1008.3
20260901103103 59 188 0.0 0.0 0.00 0.00 0.00 52 1008.6
20260901102603 58 188 0.0 0.0 0.00 0.00 0.00 51 1008.7
20260901101102 61 188 0.0 0.0 0.00 0.00 0.00 48 1008.5
20260901100603 61 188 0.0 0.0 0.00 0.00 0.00 48 1008.4
20260901095603 60 188 0.0 0.0 0.00 0.00 0.00 49 1008.6
20260901095103 60 188 0.0 0.0 0.00 0.00 0.00 49 1008.7
20260901094603 60 188 0.0 0.0 0.00 0.00 0.00 49 1008.6
20260901094103 60 188 0.0 0.0 0.00 0.00 0.00 49 1008.6
20260901093103 59 188 0.0 3.0 0.00 0.00 0.00 50 1008.6
20260901092603 59 188 1.0 3.0 0.00 0.00 0.00 50 1008.6
20260901092102 59 188 2.0 3.0 0.00 0.00 0.00 49 1008.7
20260901091603 59 188 1.0 2.0 0.00 0.00 0.00 50 1008.7
20260901091103 59 188 2.0 3.0 0.00 0.00 0.00 49 1008.8
20260901090603 59 188 3.0 5.0 0.00 0.00 0.00 49 1008.9